Total_Precipitation_Accumulation
0.53 0.43 0.56 0.63 0.57 0.64 0.90 0.89 0.81 0.45 0.37 0.40 0.41 0.42 0.44 0.47 0.47 0.47 0.52 0.58 0.61 0.62 0.67 0.70 0.67 0.71 0.82 0.95 0.98 0.99 1.04 1.21 1.41 1.52 1.71 1.79 1.79 1.79 1.80 1.81 1.71 1.68 1.64 1.59
0.60 0.33 0.44 0.52 0.44 0.46 0.52 0.50 0.50 0.35 0.34 0.32 0.37 0.39 0.40 0.45 0.50 0.52 0.57 0.61 0.61 0.60 0.61 0.65 0.67 0.71 0.77 0.86 0.92 0.99 1.06 1.11 1.30 1.53 1.67 1.75 1.77 1.81 1.82 1.83 1.78 1.70 1.64 1.60
1.03 0.46 0.80 0.95 0.59 0.53 0.53 0.50 0.52 0.57 0.49 0.34 0.33 0.38 0.48 0.53 0.55 0.57 0.62 0.66 0.64 0.62 0.62 0.66 0.69 0.71 0.77 0.84 0.89 0.94 0.96 1.00 1.14 1.35 1.53 1.64 1.69 1.78 1.91 1.90 1.83 1.75 1.64 1.57
1.61 1.19 1.56 0.87 0.46 0.45 0.53 0.59 0.58 0.57 0.49 0.43 0.44 0.45 0.50 0.59 0.66 0.63 0.65 0.67 0.66 0.66 0.66 0.68 0.69 0.71 0.79 0.82 0.82 0.86 0.87 0.87 0.95 1.10 1.28 1.46 1.62 1.69 1.79 1.90 1.89 1.80 1.68 1.59
2.18 1.70 1.00 0.49 0.41 0.58 0.67 0.68 0.61 0.56 0.45 0.40 0.38 0.38 0.43 0.53 0.68 0.76 0.76 0.70 0.67 0.65 0.64 0.65 0.69 0.74 0.75 0.80 0.83 0.82 0.84 0.84 0.86 0.94 1.07 1.24 1.42 1.55 1.65 1.77 1.81 1.79 1.72 1.54
2.38 1.86 0.99 0.56 0.38 0.42 0.58 0.79 0.56 0.55 0.55 0.49 0.48 0.56 0.54 0.55 0.64 0.72 0.70 0.67 0.67 0.62 0.59 0.61 0.68 0.73 0.74 0.78 0.82 0.85 0.86 0.85 0.85 0.89 0.95 1.07 1.23 1.38 1.54 1.65 1.71 1.70 1.70 1.58
1.89 1.63 0.84 0.50 0.38 0.38 0.81 0.92 0.56 0.57 0.64 0.63 0.68 0.72 0.62 0.54 0.56 0.61 0.62 0.62 0.61 0.59 0.59 0.65 0.69 0.72 0.78 0.78 0.82 0.84 0.83 0.83 0.83 0.84 0.87 0.95 1.11 1.25 1.41 1.52 1.62 1.61 1.56 1.54
1.28 1.57 0.97 0.51 0.47 0.76 0.94 0.64 0.57 0.57 0.60 0.65 0.61 0.56 0.55 0.53 0.52 0.51 0.55 0.56 0.59 0.60 0.63 0.65 0.66 0.72 0.79 0.80 0.78 0.77 0.76 0.77 0.78 0.78 0.81 0.88 1.02 1.15 1.27 1.41 1.54 1.55 1.48 1.52
0.98 0.92 0.67 0.60 0.71 0.75 0.70 0.65 0.56 0.57 0.55 0.60 0.62 0.59 0.55 0.51 0.49 0.49 0.52 0.53 0.54 0.59 0.61 0.61 0.63 0.68 0.80 0.80 0.75 0.71 0.71 0.73 0.75 0.77 0.80 0.82 0.89 1.05 1.24 1.33 1.43 1.50 1.41 1.42
0.70 0.54 0.46 0.46 0.48 0.53 0.57 0.60 0.55 0.56 0.59 0.59 0.61 0.58 0.52 0.47 0.46 0.46 0.48 0.51 0.50 0.53 0.56 0.61 0.65 0.67 0.72 0.75 0.74 0.67 0.69 0.72 0.71 0.75 0.81 0.79 0.82 0.93 1.13 1.29 1.40 1.48 1.39 1.33
0.60 0.45 0.39 0.35 0.36 0.41 0.44 0.43 0.42 0.45 0.51 0.55 0.56 0.52 0.48 0.46 0.44 0.45 0.49 0.51 0.50 0.52 0.56 0.65 0.71 0.68 0.65 0.70 0.72 0.69 0.68 0.72 0.72 0.72 0.77 0.81 0.87 0.94 1.05 1.19 1.45 1.68 1.58 1.47
0.63 0.47 0.55 0.45 0.35 0.36 0.38 0.38 0.40 0.42 0.44 0.44 0.46 0.46 0.40 0.41 0.43 0.44 0.46 0.46 0.47 0.47 0.51 0.59 0.66 0.66 0.63 0.65 0.70 0.72 0.71 0.70 0.72 0.75 0.76 0.77 0.85 0.98 1.11 1.16 1.28 1.33 1.45 1.56
0.52 0.44 0.44 0.41 0.36 0.35 0.36 0.34 0.35 0.39 0.42 0.43 0.40 0.39 0.38 0.39 0.41 0.45 0.46 0.44 0.45 0.46 0.49 0.55 0.60 0.62 0.62 0.66 0.71 0.75 0.76 0.74 0.75 0.76 0.74 0.75 0.81 0.93 1.09 1.16 1.22 1.25 1.30 1.44
0.35 0.38 0.39 0.36 0.37 0.33 0.32 0.31 0.31 0.34 0.36 0.38 0.40 0.38 0.37 0.37 0.38 0.43 0.48 0.47 0.45 0.43 0.46 0.50 0.56 0.62 0.62 0.64 0.71 0.74 0.75 0.79 0.82 0.79 0.78 0.81 0.87 0.96 1.06 1.17 1.25 1.28 1.34 1.46
0.30 0.36 0.41 0.35 0.31 0.29 0.30 0.31 0.31 0.33 0.34 0.36 0.38 0.41 0.42 0.41 0.40 0.44 0.50 0.50 0.47 0.45 0.45 0.46 0.52 0.62 0.63 0.64 0.70 0.73 0.74 0.77 0.83 0.86 0.84 0.86 0.90 0.99 1.08 1.16 1.22 1.29 1.35 1.54
0.30 0.29 0.31 0.30 0.30 0.30 0.30 0.32 0.33 0.37 0.38 0.38 0.40 0.44 0.47 0.46 0.45 0.48 0.51 0.50 0.50 0.49 0.47 0.46 0.50 0.57 0.63 0.68 0.71 0.72 0.74 0.83 0.89 0.91 0.89 0.90 0.94 1.03 1.10 1.18 1.22 1.28 1.35 1.48
0.41 0.37 0.34 0.34 0.32 0.32 0.34 0.36 0.39 0.41 0.42 0.43 0.45 0.49 0.50 0.47 0.45 0.47 0.49 0.48 0.51 0.52 0.49 0.48 0.50 0.54 0.59 0.64 0.70 0.73 0.76 0.78 0.87 0.89 0.89 0.93 0.99 1.06 1.14 1.22 1.23 1.25 1.28 1.40
0.46 0.46 0.45 0.46 0.44 0.40 0.36 0.35 0.37 0.40 0.44 0.48 0.49 0.51 0.53 0.50 0.47 0.47 0.50 0.50 0.52 0.53 0.49 0.46 0.49 0.55 0.57 0.61 0.68 0.72 0.78 0.80 0.83 0.85 0.90 0.98 1.06 1.10 1.18 1.24 1.22 1.23 1.25 1.35
0.37 0.38 0.39 0.40 0.42 0.44 0.41 0.37 0.36 0.37 0.41 0.44 0.49 0.53 0.53 0.52 0.50 0.51 0.52 0.51 0.53 0.55 0.53 0.50 0.55 0.55 0.55 0.63 0.76 0.75 0.80 0.85 0.88 0.88 0.91 1.03 1.09 1.06 1.13 1.20 1.23 1.21 1.22 1.24
0.33 0.34 0.36 0.36 0.37 0.41 0.41 0.37 0.34 0.35 0.37 0.42 0.48 0.50 0.51 0.52 0.52 0.52 0.52 0.53 0.59 0.64 0.62 0.62 0.60 0.59 0.62 0.69 0.79 0.78 0.83 0.88 0.95 0.98 0.98 0.99 1.05 1.08 1.11 1.18 1.23 1.22 1.19 1.18
0.35 0.36 0.37 0.37 0.37 0.36 0.39 0.39 0.38 0.39 0.39 0.42 0.49 0.53 0.56 0.56 0.53 0.51 0.53 0.56 0.58 0.62 0.64 0.65 0.65 0.71 0.79 0.85 0.86 0.83 0.86 0.91 0.99 1.05 1.06 1.07 1.09 1.10 1.13 1.18 1.22 1.20 1.18 1.18
0.42 0.42 0.42 0.41 0.39 0.39 0.40 0.42 0.44 0.45 0.43 0.43 0.47 0.52 0.56 0.55 0.50 0.48 0.50 0.60 0.65 0.70 0.67 0.64 0.72 0.87 0.96 0.98 0.89 0.85 0.87 0.92 1.01 1.06 1.08 1.11 1.15 1.17 1.16 1.18 1.22 1.19 1.16 1.17
0.50 0.49 0.48 0.48 0.47 0.47 0.45 0.45 0.49 0.52 0.52 0.51 0.54 0.58 0.59 0.57 0.55 0.57 0.59 0.60 0.66 0.74 0.74 0.75 0.89 1.00 1.03 0.97 0.91 0.90 0.93 0.97 1.03 1.10 1.12 1.15 1.17 1.18 1.19 1.20 1.20 1.20 1.21 1.21
0.53 0.53 0.53 0.51 0.48 0.48 0.51 0.52 0.54 0.56 0.58 0.60 0.61 0.64 0.66 0.65 0.59 0.60 0.69 0.74 0.78 0.82 0.81 0.86 0.98 1.06 1.05 0.98 0.95 0.97 1.02 1.05 1.10 1.17 1.17 1.18 1.20 1.20 1.19 1.20 1.22 1.19 1.18 1.19
0.56 0.56 0.53 0.51 0.51 0.55 0.60 0.62 0.60 0.60 0.59 0.62 0.61 0.62 0.66 0.72 0.76 0.73 0.75 0.80 0.81 0.84 0.82 0.85 0.94 1.01 1.00 1.00 1.00 1.03 1.09 1.15 1.26 1.32 1.27 1.22 1.20 1.21 1.19 1.19 1.19 1.17 1.17 1.19
0.58 0.60 0.62 0.64 0.67 0.70 0.72 0.70 0.69 0.68 0.66 0.65 0.64 0.66 0.69 0.72 0.75 0.77 0.81 0.82 0.82 0.84 0.82 0.82 0.86 0.93 0.99 1.03 1.03 1.06 1.12 1.21 1.30 1.31 1.23 1.21 1.20 1.20 1.21 1.19 1.15 1.14 1.15 1.17
0.58 0.60 0.62 0.63 0.66 0.72 0.77 0.79 0.79 0.79 0.77 0.77 0.77 0.75 0.76 0.77 0.79 0.80 0.80 0.80 0.80 0.82 0.85 0.89 0.94 1.01 1.10 1.11 1.11 1.11 1.17 1.21 1.24 1.27 1.25 1.23 1.22 1.21 1.19 1.18 1.16 1.17 1.18 1.16